Weather History for KGNT - March, 2013

Change the Weather History Date:

Monday, March 11, 2013

  Actual Average Record
Temperature  
Mean Temperature 36 °F -  
Max Temperature 61 °F 55 °F 77 °F (1989)
Min Temperature 11 °F 26 °F 9 °F (1974)
Degree Days  
Heating Degree Days 29    
Moisture  
Dew Point 13 °F    
Average Humidity 46    
Maximum Humidity 88    
Minimum Humidity 13    
Precipitation  
Precipitation 0.00 in - - ()
Sea Level Pressure  
Sea Level Pressure 30.18 in    
Wind  
Wind Speed 7 mph (NW)    
Max Wind Speed 17 mph    
Max Gust Speed 26 mph    
Visibility 10 miles    
Events      
Averages and records for this station are not official NWS values.
T = Trace of Precipitation, MM = Missing Value Source: NWS Daily Summary

Daily Weather History Graph

Daily Weather History Graph

Search for Another Location

Airport or City:

Trip Planner

Search our weather history database for the weather conditions in past years. The results will help you decide how hot, cold, wet, or windy it might be!

Date:

Astronomy

Mar. 11, 2013 Rise Set
Actual Time 7:27 AM MDT 7:16 PM MDT
Civil Twilight 7:02 AM MDT 7:41 PM MDT
Nautical Twilight 6:32 AM MDT 8:10 PM MDT
Astronomical Twilight 6:03 AM MDT 8:40 PM MDT
Moon 7:03 AM MDT (3/11) 7:29 PM MDT (3/11)
Length of Visible Light 12h 39m
Length of Day
11h 48m
Waning Crescent, 0% of the Moon is Illuminated
Mar 11
Waning Crescent
Mar 11
New
Mar 19
First Quarter
Mar 27
Full
Apr 2
Last Quarter

Hourly Weather History & Observations

Time (MDT) Temp. Windchill Dew Point Humidity Pressure Visibility Wind Dir Wind Speed Gust Speed Precip Events Conditions
12:15 AM 22.5 °F 13.2 °F 10.8 °F 61% 30.23 in 10.0 mi NW 8.1 mph - N/A   Clear
12:35 AM 22.5 °F 14.1 °F 11.5 °F 63% 30.24 in 10.0 mi NW 6.9 mph - N/A   Clear
12:55 AM 21.0 °F 16.2 °F 11.7 °F 67% 30.24 in 10.0 mi NW 3.5 mph - N/A   Clear
1:15 AM 22.3 °F 16.1 °F 12.9 °F 67% 30.24 in 10.0 mi NW 4.6 mph - N/A   Clear
1:35 AM 21.6 °F 15.3 °F 12.7 °F 69% 30.24 in 10.0 mi NW 4.6 mph - N/A   Clear
1:55 AM 21.7 °F 17.0 °F 13.3 °F 70% 30.25 in 10.0 mi WNW 3.5 mph - N/A   Clear
2:15 AM 20.3 °F 15.4 °F 12.9 °F 73% 30.24 in 10.0 mi NW 3.5 mph - N/A   Clear
2:35 AM 18.7 °F 11.9 °F 11.7 °F 74% 30.24 in 10.0 mi NW 4.6 mph - N/A   Clear
2:55 AM 20.8 °F 13.2 °F 14.2 °F 75% 30.24 in 10.0 mi NW 5.8 mph - N/A   Clear
3:15 AM 20.5 °F 11.7 °F 13.6 °F 75% 30.23 in 10.0 mi WNW 6.9 mph - N/A   Clear
3:35 AM 17.8 °F 9.6 °F 12.0 °F 78% 30.22 in 10.0 mi NW 5.8 mph - N/A   Clear
4:15 AM 17.4 °F 8.0 °F 12.4 °F 81% 30.21 in 10.0 mi NW 6.9 mph - N/A   Clear
4:35 AM 19.4 °F 9.5 °F 12.7 °F 75% 30.20 in 10.0 mi WNW 8.1 mph - N/A   Clear
4:55 AM 19.8 °F 13.2 °F 13.1 °F 75% 30.20 in 10.0 mi NW 4.6 mph - N/A   Clear
5:15 AM 16.9 °F 8.5 °F 11.7 °F 80% 30.20 in 10.0 mi NW 5.8 mph - N/A   Clear
5:35 AM 16.7 °F 9.6 °F 11.5 °F 80% 30.20 in 10.0 mi NW 4.6 mph - N/A   Clear
5:55 AM 14.2 °F 5.3 °F 10.4 °F 85% 30.20 in 10.0 mi NNW 5.8 mph - N/A   Clear
6:15 AM 13.1 °F 4.0 °F 9.7 °F 86% 30.20 in 10.0 mi NW 5.8 mph - N/A   Clear
6:35 AM 14.7 °F 9.0 °F 11.7 °F 88% 30.20 in 10.0 mi NW 3.5 mph - N/A   Clear
6:55 AM 12.6 °F 6.5 °F 9.5 °F 88% 30.20 in 10.0 mi NNW 3.5 mph - N/A   Clear
7:15 AM 11.1 °F 1.7 °F 7.2 °F 84% 30.21 in 10.0 mi NNW 5.8 mph - N/A   Clear
7:35 AM 12.7 °F 5.0 °F 8.8 °F 84% 30.21 in 10.0 mi NW 4.6 mph - N/A   Clear
7:55 AM 13.8 °F - 9.3 °F 82% 30.21 in 10.0 mi Calm Calm - N/A   Clear
8:15 AM 18.3 °F 13.1 °F 13.1 °F 80% 30.22 in 10.0 mi NW 3.5 mph - N/A   Clear
8:35 AM 22.3 °F 17.6 °F 14.4 °F 72% 30.23 in 10.0 mi NNW 3.5 mph - N/A   Clear
8:55 AM 24.6 °F 20.3 °F 13.8 °F 64% 30.23 in 10.0 mi NNW 3.5 mph - N/A   Clear
9:15 AM 28.0 °F 22.8 °F 14.7 °F 57% 30.24 in 10.0 mi NNW 4.6 mph - N/A   Clear
9:35 AM 32.0 °F 26.4 °F 16.0 °F 52% 30.24 in 10.0 mi NNW 5.8 mph - N/A   Clear
9:55 AM 34.0 °F 29.8 °F 17.1 °F 50% 30.24 in 10.0 mi NNW 4.6 mph - N/A   Clear
10:15 AM 36.9 °F 34.3 °F 18.0 °F 46% 30.24 in 10.0 mi WNW 3.5 mph - N/A   Clear
10:35 AM 38.5 °F - 17.4 °F 43% 30.24 in 10.0 mi Calm Calm - N/A   Clear
10:55 AM 40.8 °F - 17.8 °F 40% 30.23 in 10.0 mi Calm Calm - N/A   Clear
11:15 AM 43.7 °F - 17.4 °F 35% 30.23 in 10.0 mi Calm Calm - N/A   Clear
11:35 AM 48.0 °F - 17.8 °F 30% 30.22 in 10.0 mi North 5.8 mph - N/A   Clear
11:55 AM 49.3 °F - 16.7 °F 27% 30.21 in 10.0 mi North 11.5 mph - N/A   Clear
12:15 PM 50.2 °F - 15.3 °F 25% 30.20 in 10.0 mi Calm Calm - N/A   Clear
12:35 PM 52.9 °F - 13.5 °F 21% 30.19 in 10.0 mi North 10.4 mph - N/A   Clear
12:55 PM 55.0 °F - 11.1 °F 17% 30.18 in 10.0 mi North 13.8 mph 20.7 mph N/A   Clear
1:15 PM 56.7 °F - 10.0 °F 16% 30.18 in 10.0 mi North 9.2 mph 20.7 mph N/A   Clear
1:35 PM 57.7 °F - 9.1 °F 15% 30.17 in 10.0 mi NNW 11.5 mph 21.9 mph N/A   Clear
1:55 PM 58.1 °F - 9.5 °F 15% 30.15 in 10.0 mi NNW 17.3 mph 23.0 mph N/A   Clear
2:15 PM 59.0 °F - 9.1 °F 14% 30.14 in 10.0 mi NW 16.1 mph 24.2 mph N/A   Clear
2:35 PM 59.0 °F - 7.7 °F 13% 30.13 in 10.0 mi NW 13.8 mph 26.5 mph N/A   Clear
2:55 PM 60.3 °F - 8.4 °F 13% 30.12 in 10.0 mi NW 15.0 mph 20.7 mph N/A   Clear
3:15 PM 60.8 °F - 8.2 °F 13% 30.12 in 10.0 mi NNW 16.1 mph 21.9 mph N/A   Clear
3:35 PM 61.2 °F - 8.6 °F 13% 30.12 in 10.0 mi NNW 15.0 mph 20.7 mph N/A   Clear
3:55 PM 61.0 °F - 10.8 °F 14% 30.11 in 10.0 mi NNW 13.8 mph 23.0 mph N/A   Clear
4:15 PM 61.9 °F - 12.6 °F 15% 30.11 in 10.0 mi NNW 17.3 mph 23.0 mph N/A   Clear
4:35 PM 61.3 °F - 13.1 °F 15% 30.11 in 10.0 mi NW 11.5 mph 21.9 mph N/A   Clear
4:55 PM 61.7 °F - 13.5 °F 15% 30.10 in 10.0 mi NW 17.3 mph - N/A   Clear
5:15 PM 61.0 °F - 12.9 °F 15% 30.09 in 10.0 mi NNW 17.3 mph 23.0 mph N/A   Clear
5:35 PM 60.1 °F - 12.2 °F 15% 30.09 in 10.0 mi NW 16.1 mph 26.5 mph N/A   Clear
5:55 PM 59.4 °F - 14.0 °F 17% 30.09 in 10.0 mi NW 11.5 mph - N/A   Clear
6:15 PM 59.0 °F - 14.9 °F 18% 30.10 in 10.0 mi NNW 12.7 mph - N/A   Clear
6:35 PM 57.7 °F - 15.3 °F 19% 30.10 in 10.0 mi NW 13.8 mph - N/A   Clear
6:55 PM 55.9 °F - 16.5 °F 21% 30.11 in 10.0 mi WNW 12.7 mph - N/A   Clear
7:15 PM 53.8 °F - 17.2 °F 24% 30.11 in 10.0 mi WNW 12.7 mph 16.1 mph N/A   Clear
7:35 PM 52.7 °F - 18.7 °F 26% 30.12 in 10.0 mi WNW 13.8 mph 18.4 mph N/A   Clear
7:55 PM 50.7 °F - 19.2 °F 29% 30.12 in 10.0 mi WNW 9.2 mph - N/A   Clear
8:15 PM 45.5 °F 40.8 °F 18.9 °F 35% 30.13 in 10.0 mi West 9.2 mph - N/A   Clear
8:35 PM 44.8 °F 39.9 °F 19.8 °F 37% 30.13 in 10.0 mi West 9.2 mph - N/A   Clear
8:55 PM 44.6 °F 39.7 °F 21.7 °F 40% 30.14 in 10.0 mi West 9.2 mph - N/A   Clear
9:15 PM 39.7 °F 35.6 °F 19.6 °F 44% 30.15 in 10.0 mi North 5.8 mph - N/A   Clear
9:35 PM 38.8 °F 36.5 °F 15.8 °F 39% 30.15 in 10.0 mi NNW 3.5 mph - N/A   Clear
9:55 PM 43.5 °F 40.9 °F 15.1 °F 32% 30.16 in 10.0 mi NNW 4.6 mph - N/A   Clear
10:15 PM 38.3 °F 34.8 °F 12.2 °F 34% 30.16 in 10.0 mi NW 4.6 mph - N/A   Clear
10:35 PM 33.8 °F 27.7 °F 11.8 °F 40% 30.18 in 10.0 mi NW 6.9 mph - N/A   Clear
10:55 PM 34.2 °F 30.0 °F 12.0 °F 40% 30.18 in 10.0 mi NW 4.6 mph - N/A   Clear
11:15 PM 31.6 °F 28.3 °F 12.2 °F 45% 30.19 in 10.0 mi NW 3.5 mph - N/A   Clear
11:55 PM 32.7 °F 28.3 °F 13.1 °F 44% 30.18 in 10.0 mi WNW 4.6 mph - N/A   Clear